KC2DUX Weather Reports


Display with metric or nautical units.
time (UTC)temp
F
wind
direction
speed
MPH
gust
MPH
rain 1hr
in
rain 24hr
in
rain mn
in
humidity
%
barometer
mb
20260504050556 54 236 4.0 9.0 0.00 0.00 0.00 67 1015.3
20260504050131 54 230 5.0 10.0 0.00 0.00 0.00 66 1015.3
20260504045554 54 221 5.0 10.0 0.00 0.00 0.00 67 1015.4
20260504045053 53 233 5.0 10.0 0.00 0.00 0.00 67 1015.3
20260504044555 53 221 4.0 9.0 0.00 0.00 0.00 67 1015.3
20260504044052 53 217 4.0 8.0 0.00 0.00 0.00 67 1015.2
20260504043552 53 219 3.0 7.0 0.00 0.00 0.00 67 1015.2
20260504043058 53 253 3.0 8.0 0.00 0.00 0.00 68 1015.2
20260504042551 54 233 4.0 7.0 0.00 0.00 0.00 67 1015.1
20260504042052 54 211 4.0 7.0 0.00 0.00 0.00 67 1015.1
20260504041548 53 236 3.0 9.0 0.00 0.00 0.00 67 1015.1
20260504041047 53 232 3.0 8.0 0.00 0.00 0.00 68 1015.1
20260504040546 53 243 3.0 8.0 0.00 0.00 0.00 68 1015.0
20260504040044 53 218 3.0 7.0 0.00 0.00 0.00 68 1015.0
20260504035544 52 203 4.0 7.0 0.00 0.00 0.00 67 1015.0
20260504035044 52 217 2.0 7.0 0.00 0.00 0.00 67 1015.0
20260504034549 52 221 3.0 7.0 0.00 0.00 0.00 69 1015.0
20260504034042 52 217 2.0 5.0 0.00 0.00 0.00 69 1014.9
20260504033542 52 234 2.0 7.0 0.00 0.00 0.00 67 1014.8
20260504033045 53 214 3.0 6.0 0.00 0.00 0.00 65 1014.8
20260504032543 53 215 2.0 6.0 0.00 0.00 0.00 66 1014.8
20260504032041 53 236 2.0 6.0 0.00 0.00 0.00 66 1014.8
20260504031601 53 224 2.0 8.0 0.00 0.00 0.00 68 1014.8
20260504031041 53 213 3.0 8.0 0.00 0.00 0.00 68 1014.8
20260504030541 51 236 3.0 7.0 0.00 0.00 0.00 72 1014.8
20260504030041 51 252 0.0 4.0 0.00 0.00 0.00 72 1014.7
20260504025539 51 229 1.0 4.0 0.00 0.00 0.00 73 1014.7
20260504025039 51 281 0.0 4.0 0.00 0.00 0.00 73 1014.7
20260504024542 51 235 1.0 4.0 0.00 0.00 0.00 72 1014.7
20260504024039 51 239 0.0 2.0 0.00 0.00 0.00 71 1014.7
20260504023539 52 225 1.0 3.0 0.00 0.00 0.00 71 1014.7
20260504023039 52 245 0.0 4.0 0.00 0.00 0.00 69 1014.7
20260504022542 52 264 1.0 4.0 0.00 0.00 0.00 68 1014.7
20260504022039 53 292 1.0 6.0 0.00 0.00 0.00 67 1014.7
20260504021538 53 275 1.0 5.0 0.00 0.00 0.00 66 1014.7
20260504021037 53 266 2.0 5.0 0.00 0.00 0.00 66 1014.7
20260504020538 53 286 1.0 7.0 0.00 0.00 0.00 66 1014.7
20260504020039 52 242 1.0 7.0 0.00 0.00 0.00 66 1014.6
20260504015537 52 243 1.0 6.0 0.00 0.00 0.00 66 1014.6
20260504015035 52 223 1.0 6.0 0.00 0.00 0.00 68 1014.6
20260504014536 52 248 1.0 4.0 0.00 0.00 0.00 68 1014.6
20260504014035 52 250 1.0 4.0 0.00 0.00 0.00 68 1014.6
20260504013637 52 238 1.0 4.0 0.00 0.00 0.00 67 1014.6
20260504013036 52 217 1.0 3.0 0.00 0.00 0.00 66 1014.5
20260504012534 52 267 0.0 3.0 0.00 0.00 0.00 64 1014.5
20260504012033 52 234 0.0 2.0 0.00 0.00 0.00 63 1014.4
20260504011532 52 272 0.0 3.0 0.00 0.00 0.00 62 1014.4
20260504011031 53 247 1.0 3.0 0.00 0.00 0.00 61 1014.4
20260504010532 53 262 0.0 2.0 0.00 0.00 0.00 59 1014.2
20260504010030 53 248 0.0 2.0 0.00 0.00 0.00 58 1014.2
20260504005530 54 262 1.0 3.0 0.00 0.00 0.00 56 1014.1
20260504005029 54 236 1.0 3.0 0.00 0.00 0.00 54 1014.1
20260504004530 54 269 1.0 4.0 0.00 0.00 0.00 53 1014.0
20260504004029 54 234 1.0 4.0 0.00 0.00 0.00 52 1013.9
20260504003529 54 284 1.0 5.0 0.00 0.00 0.00 52 1013.7
20260504003028 54 285 1.0 5.0 0.00 0.00 0.00 52 1013.7
20260504002528 54 301 1.0 3.0 0.00 0.00 0.00 52 1013.7
20260504002028 55 246 1.0 5.0 0.00 0.00 0.00 52 1013.6
20260504001528 55 232 1.0 7.0 0.00 0.00 0.00 51 1013.6
20260504001028 55 240 1.0 7.0 0.00 0.00 0.00 50 1013.5
20260504000528 55 277 1.0 4.0 0.00 0.00 0.00 48 1013.5
20260504000027 55 271 1.0 6.0 0.00 0.00 0.00 46 1013.5
20260503235527 56 243 1.0 7.0 0.00 0.00 0.00 45 1013.4
20260503235027 56 254 2.0 7.0 0.00 0.00 0.00 44 1013.5
20260503234530 56 285 2.0 7.0 0.00 0.00 0.00 44 1013.4
20260503234031 56 219 2.0 7.0 0.00 0.00 0.00 43 1013.4
20260503233528 57 227 2.0 8.0 0.00 0.00 0.00 42 1013.4
20260503233026 57 250 2.0 8.0 0.00 0.00 0.00 42 1013.4
20260503232527 57 309 4.0 8.0 0.00 0.00 0.00 41 1013.3
20260503232026 57 279 3.0 12.0 0.00 0.00 0.00 40 1013.2
20260503231536 57 227 2.0 12.0 0.00 0.00 0.00 39 1013.2
20260503231026 58 240 3.0 11.0 0.00 0.00 0.00 38 1013.2
20260503230526 58 227 4.0 11.0 0.00 0.00 0.00 37 1013.2
20260503230025 58 221 2.0 13.0 0.00 0.00 0.00 37 1013.2
20260503225529 59 262 6.0 14.0 0.00 0.00 0.00 35 1013.2
20260503225027 59 30 3.0 13.0 0.00 0.00 0.00 34 1013.2
20260503224524 59 274 5.0 13.0 0.00 0.00 0.00 34 1013.1
20260503224027 59 232 2.0 10.0 0.00 0.00 0.00 34 1013.1
20260503223524 59 318 5.0 12.0 0.00 0.00 0.00 35 1013.1
20260503223026 59 301 4.0 14.0 0.00 0.00 0.00 34 1013.1
20260503222524 59 271 5.0 14.0 0.00 0.00 0.00 34 1013.0
20260503222023 59 282 5.0 16.0 0.00 0.00 0.00 35 1012.9
20260503221523 59 297 2.0 16.0 0.00 0.00 0.00 35 1013.1
20260503221023 59 110 6.0 13.0 0.00 0.00 0.00 33 1013.1
20260503220526 59 37 5.0 16.0 0.00 0.00 0.00 34 1013.0
20260503220031 59 261 5.0 15.0 0.00 0.00 0.00 34 1013.0
20260503215521 59 259 7.0 22.0 0.00 0.00 0.00 34 1013.0
20260503215022 59 274 6.0 22.0 0.00 0.00 0.00 34 1013.1
20260503214522 59 304 9.0 18.0 0.00 0.00 0.00 33 1012.9
20260503214024 60 355 5.0 16.0 0.00 0.00 0.00 33 1012.8
20260503213521 59 286 7.0 18.0 0.00 0.00 0.00 33 1012.9
20260503213027 59 9 7.0 18.0 0.00 0.00 0.00 35 1012.7
20260503212522 59 262 5.0 15.0 0.00 0.00 0.00 34 1012.7
20260503212020 59 222 4.0 15.0 0.00 0.00 0.00 34 1012.7
20260503211523 60 71 5.0 15.0 0.00 0.00 0.00 32 1012.7
20260503211023 60 293 3.0 14.0 0.00 0.00 0.00 33 1012.6
20260503210520 59 42 5.0 15.0 0.00 0.00 0.00 33 1012.6
20260503210020 59 207 5.0 16.0 0.00 0.00 0.00 33 1012.7
20260503205521 60 274 6.0 16.0 0.00 0.00 0.00 33 1012.7
20260503205024 60 240 4.0 15.0 0.00 0.00 0.00 33 1012.6
20260503204520 60 342 7.0 15.0 0.00 0.00 0.00 34 1012.7
20260503204019 60 340 5.0 15.0 0.00 0.00 0.00 34 1012.8
20260503203518 60 312 2.0 14.0 0.00 0.00 0.00 36 1012.8
20260503203023 59 212 3.0 17.0 0.00 0.00 0.00 35 1012.7
20260503202517 59 130 7.0 17.0 0.00 0.00 0.00 32 1012.8
20260503202017 59 262 7.0 17.0 0.00 0.00 0.00 33 1012.9
20260503201523 59 314 5.0 17.0 0.00 0.00 0.00 33 1012.8
20260503201016 59 267 6.0 17.0 0.00 0.00 0.00 33 1012.8
20260503200516 59 262 6.0 13.0 0.00 0.00 0.00 33 1012.8
20260503200016 59 126 3.0 14.0 0.00 0.00 0.00 33 1012.9
20260503195515 59 340 6.0 15.0 0.00 0.00 0.00 33 1012.9
20260503195015 59 291 4.0 15.0 0.00 0.00 0.00 37 1012.8
20260503194522 59 204 6.0 14.0 0.00 0.00 0.00 35 1012.8
20260503194014 59 44 5.0 12.0 0.00 0.00 0.00 33 1012.7
20260503193514 59 259 5.0 15.0 0.00 0.00 0.00 35 1012.9
20260503193012 58 290 4.0 17.0 0.00 0.00 0.00 36 1012.8
20260503192512 58 5 7.0 17.0 0.00 0.00 0.00 34 1013.0
20260503192011 58 283 5.0 16.0 0.00 0.00 0.00 35 1012.9
20260503191512 58 28 6.0 16.0 0.00 0.00 0.00 34 1013.1
20260503191016 59 348 3.0 13.0 0.00 0.00 0.00 35 1013.1
20260503190510 58 49 3.0 9.0 0.00 0.00 0.00 35 1013.1
20260503190012 57 279 2.0 13.0 0.00 0.00 0.00 39 1013.2
20260503185511 56 355 4.0 19.0 0.00 0.00 0.00 37 1013.2
20260503185008 57 28 7.0 19.0 0.00 0.00 0.00 35 1013.2
20260503184509 57 309 6.0 17.0 0.00 0.00 0.00 37 1013.4
20260503184010 57 5 4.0 18.0 0.00 0.00 0.00 38 1013.4
20260503183508 57 285 7.0 18.0 0.00 0.00 0.00 36 1013.4
20260503183006 57 20 4.0 16.0 0.00 0.00 0.00 38 1013.4
20260503182509 57 302 4.0 14.0 0.00 0.00 0.00 38 1013.3
20260503182006 57 231 4.0 15.0 0.00 0.00 0.00 37 1013.4
20260503181507 57 299 5.0 15.0 0.00 0.00 0.00 37 1013.5
20260503181006 57 319 3.0 15.0 0.00 0.00 0.00 39 1013.5
20260503180504 56 23 4.0 16.0 0.00 0.00 0.00 39 1013.3
20260503180009 55 5 1.0 16.0 0.00 0.00 0.00 41 1013.4
20260503175502 55 290 3.0 14.0 0.00 0.00 0.00 40 1013.4
20260503175002 55 38 6.0 14.0 0.00 0.00 0.00 40 1013.4
20260503174505 55 324 5.0 16.0 0.00 0.00 0.00 40 1013.2
20260503174005 56 262 8.0 16.0 0.00 0.00 0.00 38 1013.4
20260503173501 56 355 3.0 14.0 0.00 0.00 0.00 39 1013.3
20260503173131 56 77 5.0 17.0 0.00 0.00 0.00 38 1013.5
20260503172559 56 329 7.0 17.0 0.00 0.00 0.00 38 1013.4
20260503172102 55 302 5.0 17.0 0.00 0.00 0.00 40 1013.4
20260503171559 55 55 5.0 13.0 0.00 0.00 0.00 40 1013.4
20260503171058 55 344 4.0 14.0 0.00 0.00 0.00 40 1013.5
20260503170558 55 47 2.0 12.0 0.00 0.00 0.00 41 1013.6
20260503150548 52 346 4.0 13.0 0.00 0.00 0.00 43 1014.0
20260503131037 50 42 5.0 15.0 0.00 0.00 0.00 54 1013.6
20260503130537 50 24 5.0 13.0 0.00 0.00 0.00 56 1013.6
20260503110526 44 336 2.0 9.0 0.00 0.00 0.00 73 1012.4
20260503090504 44 303 3.0 7.0 0.00 0.00 0.00 73 1010.9
20260503081600 45 323 0.0 6.0 0.00 0.00 0.00 70 1010.6
20260503081057 45 311 2.0 6.0 0.00 0.00 0.00 70 1010.5
20260503080600 45 263 2.0 6.0 0.00 0.00 0.00 70 1010.5
20260503072550 46 319 1.0 4.0 0.00 0.00 0.00 67 1010.3
20260503072049 46 355 0.0 5.0 0.00 0.00 0.00 67 1010.3
20260503071607 46 341 1.0 5.0 0.00 0.00 0.00 66 1010.2
20260503071047 46 298 0.0 4.0 0.00 0.00 0.00 65 1010.3
20260503070546 46 335 0.0 3.0 0.00 0.00 0.00 64 1010.2